Regional Weather Roundup
Issued by NWS

Home | Current Version | Previous Version | Graphics & Text | Print | Product List | Glossary On
Versions: 1 2 3 4 5 6 7 8 9 10 11 12 13 14 15 16 17 18 19 20 21 22 23 24 25 26 27 28 29 30 31 32 33 34 35 36 37 38 39 40 41 42 43 44 45 46 47 48 49 50
000
ASUS45 KTFX 221110
RWRMT
MONTANA REGIONAL WEATHER ROUNDUP
NATIONAL WEATHER SERVICE GREAT FALLS MT
500 AM MDT FRI MAY 22 2015

NOTE: "FAIR" INDICATES FEW OR NO CLOUDS BELOW 12000 FEET WITH NO
SIGNIFICANT WEATHER AND/OR OBSTRUCTIONS TO VISIBILITY.

MTZ001>007-043-221200-
WEST OF THE DIVIDE

CITY           SKY/WX    TMP DP  RH WIND       PRES   REMARKS
KALISPELL      SUNNY     42  36  79 NW5       29.91S
MISSOULA       CLEAR     44  40  85 N3        29.95R
BUTTE          CLEAR     34  32  92 SE3       30.00S
MULLAN PASS    CLEAR     48  37  65 SE7       29.98S
DEER LODGE       N/A     37  36  93 W3        30.02S
EUREKA           N/A     43  34  70 CALM      29.93R
HAMILTON         N/A     45  43  93 S3        29.94S
LIBBY            N/A     45  37  76 CALM      29.91R
RONAN            N/A     45  39  79 CALM      29.95F
THOMPSON FALLS   N/A     44  39  82 E2        29.95S
$$

MTZ008-052>055-221200-
SOUTHWEST MONTANA

CITY           SKY/WX    TMP DP  RH WIND       PRES   REMARKS
BOZEMAN        CLEAR     41  37  86 SE5       29.98R
DILLON         CLOUDY    45  41  86 CALM      29.97R
W YELLOWSTONE  MOCLDY    32  32 100 CALM      30.02F
THREE FORKS      N/A     40  20  45 CALM      29.96S
TWIN BRIDGES     N/A     44  37  76 S1        29.97R
$$

MTZ009-010-012-014-046-048-049-054-221200-
EAST SLOPES AND CENTRAL MONTANA

CITY           SKY/WX    TMP DP  RH WIND       PRES   REMARKS
CUT BANK       CLEAR     41  28  60 E6        29.97S
GREAT FALLS    CLEAR     44  38  79 CALM      29.95S
MALMSTROM AFB  CLEAR     41  38  88 E6        29.96R
HELENA         CLEAR     45  42  89 CALM      29.96S
CONRAD           N/A     36  34  92 CALM      29.99S
$$

MTZ011-013-016-021-045-047-050-051-221200-
NORTH CENTRAL MONTANA

CITY           SKY/WX    TMP DP  RH WIND       PRES   REMARKS
HAVRE          CLEAR     42  33  70 NE10      29.99S
LEWISTOWN      CLEAR     43  37  79 SE7       29.98F
N BAR RANCH    FAIR      39  36  87 W5        30.02F
CHINOOK          N/A     39  34  81 CALM      30.02S
FORT BENTON      N/A     48  34  57 N7        29.97S
$$

MTZ017>020-022>027-061-062-221200-
NORTHEAST MONTANA

CITY           SKY/WX    TMP DP  RH WIND       PRES   REMARKS
GLASGOW        CLEAR     46  32  58 E13       30.05F
JORDAN           N/A     46  31  55 E7        30.02F
SIDNEY         CLEAR     39  34  81 CALM      30.12R
WOLF POINT     CLEAR     39  33  79 E9        30.10S
MALTA            N/A     44  32  63 NE2       29.99F
PLENTYWOOD       N/A     52  34  50 E5        30.12S
POPLAR           N/A     45  36  70 N5        30.10S
$$

MTZ028>42-056>058-221200-
SOUTHCENTRAL AND SOUTHEAST MONTANA

CITY           SKY/WX    TMP DP  RH WIND       PRES   REMARKS
BAKER          CLEAR     32  28  85 SE7       30.11R WCI  26
BILLINGS       MOCLDY    47  41  80 N3        29.96R
LIVINGSTON     PTCLDY    38  35  89 CALM      29.98S
MILES CITY     PTCLDY    45  32  60 SE6       30.04S
BIG TIMBER       N/A     43  39  87 SW6       29.99F
FORSYTH          N/A     45  37  76 E5        30.01S
LAUREL           N/A     45  37  73 CALM      29.95R
ROUNDUP          N/A     42  31  65 CALM      29.90S
$$

REGIONAL REPORTS...DAKOTAS

CITY           SKY/WX    TMP DP  RH WIND       PRES   REMARKS
WILLISTON      CLEAR     41  35  79 CALM      30.12R
MINOT          CLEAR     48  35  60 E5        30.13S
DICKINSON      CLEAR     40  31  70 E8        30.12R
BEACH          FAIR      37  32  81 SE8       30.12S WCI  31
CROSBY         FAIR      46  39  76 SW7       30.13R
WATFORD CITY   FAIR      36  32  87 CALM      30.11S
BISMARCK       CLEAR     43  39  86 NE5       30.16R
GRAND FORKS    CLEAR     39  36  89 S3        30.16R
FARGO          CLEAR     42  38  85 CALM      30.17R
BUFFALO SD       N/A     45  30  55 E9        30.04F
RAPID CITY     CLOUDY    49  45  86 SE6       30.10S
$$

REGIONAL REPORTS...WYOMING/IDAHO/WASHINGTON

CITY           SKY/WX    TMP DP  RH WIND       PRES   REMARKS
GILLETTE       CLOUDY    47  43  86 SE13      30.02F
SHERIDAN       MOCLDY    44  40  85 S5        29.97F
BUFFALO WY     CLOUDY    44  42  93 SE14      30.00F
CODY           CLOUDY    48  43  81 SW6       29.97S
YELLOWSTONE LA   N/A     35  32  88 CALM      30.06F
IDAHO FALLS    CLOUDY    47  44  90 NE5       29.93F
SALMON         MOCLDY    46  43  87 CALM      29.93S
BOISE          PTCLDY    53  47  79 SE8       29.87S
SPOKANE        MOCLDY    60  49  66 SE5       29.85R
$$

REGIONAL REPORTS...ALBERTA

CITY           SKY/WX    TMP DP  RH WIND       PRES   REMARKS
EDMONTON       CLEAR     39  32  75 SW2       29.96R
CALGARY        PTCLDY    39  28  65 VRB2      29.98S
LETHBRIDGE     CLEAR     39  32  75 VRB2      29.97S
MEDICINE HAT   CLEAR     46  30  53 N6        30.00R
$$

REGIONAL REPORTS...SASKATCHEWAN

CITY           SKY/WX    TMP DP  RH WIND       PRES   REMARKS
SWIFT CURRENT  CLEAR     43  30  61 S9        30.07S
REGINA         PTCLDY    46  34  61 E7        30.11S
SASKATOON      CLEAR     45  34  65 S6        30.09R
$$


USA.gov is the U.S. government's official web portal to all federal, state and local government web resources and services.